TimeCST,TemperatureF,Dew PointF,Humidity,Sea Level PressureIn,VisibilityMPH,Wind Direction,Wind SpeedMPH,Gust SpeedMPH,PrecipitationIn,Events,Conditions,WindDirDegrees,DateUTC
12:15 AM,19.4,14.0,80,30.24,10.0,NNW,3.5,-,N/A,,Clear,340,2013-01-02 06:15:00
12:35 AM,19.4,12.2,74,30.25,10.0,North,3.5,-,N/A,,Clear,350,2013-01-02 06:35:00
12:55 AM,19.4,12.2,74,30.24,10.0,Calm,Calm,-,N/A,,Clear,0,2013-01-02 06:55:00
1:15 AM,19.4,12.2,74,30.25,10.0,Calm,Calm,-,N/A,,Clear,0,2013-01-02 07:15:00
1:35 AM,19.4,12.2,74,30.26,10.0,NNW,3.5,-,N/A,,Clear,330,2013-01-02 07:35:00
1:55 AM,19.4,12.2,74,30.26,10.0,NNW,3.5,-,N/A,,Clear,340,2013-01-02 07:55:00
2:15 AM,17.6,12.2,79,30.26,10.0,NNW,3.5,-,N/A,,Clear,340,2013-01-02 08:15:00
2:35 AM,17.6,12.2,79,30.27,10.0,Calm,Calm,-,N/A,,Clear,0,2013-01-02 08:35:00
2:55 AM,17.6,12.2,79,30.26,10.0,NNW,3.5,-,N/A,,Clear,340,2013-01-02 08:55:00
3:15 AM,15.8,12.2,86,30.26,10.0,NNW,3.5,-,N/A,,Clear,330,2013-01-02 09:15:00
3:35 AM,14.0,10.4,86,30.26,10.0,Calm,Calm,-,N/A,,Clear,0,2013-01-02 09:35:00
3:55 AM,14.0,12.2,93,30.25,10.0,NNW,3.5,-,N/A,,Clear,330,2013-01-02 09:55:00
4:15 AM,14.0,10.4,86,30.25,10.0,NNW,4.6,-,N/A,,Clear,330,2013-01-02 10:15:00
4:35 AM,12.2,10.4,92,30.26,10.0,NW,4.6,-,N/A,,Clear,320,2013-01-02 10:35:00
4:55 AM,12.2,8.6,85,30.26,10.0,Calm,Calm,-,N/A,,Clear,0,2013-01-02 10:55:00
5:15 AM,12.2,10.4,92,30.26,10.0,Calm,Calm,-,N/A,,Clear,0,2013-01-02 11:15:00
5:35 AM,12.2,10.4,92,30.26,10.0,Calm,Calm,-,N/A,,Clear,0,2013-01-02 11:35:00
5:55 AM,10.4,8.6,92,30.28,7.0,West,3.5,-,N/A,,Clear,270,2013-01-02 11:55:00
6:15 AM,10.4,8.6,92,30.27,7.0,Calm,Calm,-,N/A,,Clear,0,2013-01-02 12:15:00
6:35 AM,10.4,10.4,100,30.28,7.0,NW,4.6,-,N/A,,Clear,320,2013-01-02 12:35:00
6:55 AM,10.4,8.6,92,30.28,5.0,Calm,Calm,-,N/A,,Clear,0,2013-01-02 12:55:00
7:15 AM,10.4,8.6,92,30.28,5.0,Calm,Calm,-,N/A,,Clear,0,2013-01-02 13:15:00
7:35 AM,12.2,10.4,92,30.29,5.0,Calm,Calm,-,N/A,,Clear,0,2013-01-02 13:35:00
7:55 AM,12.2,10.4,92,30.29,5.0,Calm,Calm,-,N/A,,Clear,0,2013-01-02 13:55:00
8:15 AM,14.0,12.2,93,30.29,7.0,Calm,Calm,-,N/A,,Clear,0,2013-01-02 14:15:00
8:35 AM,17.6,12.2,79,30.29,10.0,North,3.5,-,N/A,,Clear,360,2013-01-02 14:35:00
8:55 AM,17.6,12.2,79,30.30,10.0,North,3.5,-,N/A,,Clear,360,2013-01-02 14:55:00
9:15 AM,19.4,12.2,74,30.31,10.0,Calm,Calm,-,N/A,,Clear,0,2013-01-02 15:15:00
9:35 AM,21.2,12.2,68,30.30,10.0,Calm,Calm,-,N/A,,Clear,0,2013-01-02 15:35:00
9:55 AM,23.0,10.4,59,30.31,10.0,Calm,Calm,-,N/A,,Clear,0,2013-01-02 15:55:00
10:15 AM,23.0,10.4,59,30.30,10.0,East,3.5,-,N/A,,Clear,80,2013-01-02 16:15:00
10:35 AM,23.0,10.4,59,30.29,10.0,Calm,Calm,-,N/A,,Clear,0,2013-01-02 16:35:00
10:55 AM,23.0,12.2,63,30.28,10.0,SE,3.5,-,N/A,,Clear,140,2013-01-02 16:55:00
11:15 AM,23.0,12.2,63,30.29,10.0,Calm,Calm,-,N/A,,Clear,0,2013-01-02 17:15:00
11:35 AM,23.0,12.2,63,30.28,10.0,Calm,Calm,-,N/A,,Clear,0,2013-01-02 17:35:00
11:55 AM,24.8,12.2,59,30.27,10.0,Calm,Calm,-,N/A,,Clear,0,2013-01-02 17:55:00
12:15 PM,24.8,12.2,59,30.26,10.0,Calm,Calm,-,N/A,,Clear,0,2013-01-02 18:15:00
12:35 PM,26.6,12.2,55,30.26,10.0,Calm,Calm,-,N/A,,Clear,0,2013-01-02 18:35:00
12:55 PM,26.6,12.2,55,30.25,10.0,Calm,Calm,-,N/A,,Clear,0,2013-01-02 18:55:00
1:15 PM,26.6,10.4,51,30.24,10.0,Calm,Calm,-,N/A,,Clear,0,2013-01-02 19:15:00
1:35 PM,26.6,8.6,47,30.23,10.0,Calm,Calm,-,N/A,,Clear,0,2013-01-02 19:35:00
1:55 PM,26.6,10.4,51,30.23,10.0,Calm,Calm,-,N/A,,Clear,0,2013-01-02 19:55:00
2:15 PM,28.4,8.6,43,30.22,10.0,Calm,Calm,-,N/A,,Clear,0,2013-01-02 20:15:00
2:35 PM,28.4,5.0,37,30.23,10.0,Calm,Calm,-,N/A,,Clear,0,2013-01-02 20:35:00
2:55 PM,28.4,1.4,31,30.23,10.0,Calm,Calm,-,N/A,,Clear,0,2013-01-02 20:55:00
3:15 PM,28.4,5.0,37,30.24,10.0,Calm,Calm,-,N/A,,Clear,0,2013-01-02 21:15:00
3:35 PM,28.4,1.4,31,30.24,10.0,Calm,Calm,-,N/A,,Clear,0,2013-01-02 21:35:00
3:55 PM,26.6,10.4,51,30.24,10.0,Calm,Calm,-,N/A,,Clear,0,2013-01-02 21:55:00
4:15 PM,26.6,14.0,59,30.25,10.0,ENE,4.6,-,N/A,,Clear,70,2013-01-02 22:15:00
4:35 PM,26.6,12.2,55,30.24,10.0,ENE,4.6,-,N/A,,Clear,60,2013-01-02 22:35:00
4:55 PM,26.6,12.2,55,30.24,10.0,NE,3.5,-,N/A,,Clear,50,2013-01-02 22:55:00
5:15 PM,23.0,12.2,63,30.25,10.0,Calm,Calm,-,N/A,,Clear,0,2013-01-02 23:15:00
5:35 PM,23.0,12.2,63,30.26,10.0,Calm,Calm,-,N/A,,Clear,0,2013-01-02 23:35:00
5:55 PM,23.0,12.2,63,30.25,10.0,Calm,Calm,-,N/A,,Clear,0,2013-01-02 23:55:00
6:15 PM,23.0,12.2,63,30.26,10.0,Calm,Calm,-,N/A,,Clear,0,2013-01-03 00:15:00
6:35 PM,23.0,12.2,63,30.26,10.0,Calm,Calm,-,N/A,,Clear,0,2013-01-03 00:35:00
6:55 PM,19.4,14.0,80,30.26,10.0,Calm,Calm,-,N/A,,Clear,0,2013-01-03 00:55:00
7:15 PM,19.4,14.0,80,30.26,10.0,Calm,Calm,-,N/A,,Clear,0,2013-01-03 01:15:00
7:35 PM,19.4,14.0,80,30.26,10.0,Calm,Calm,-,N/A,,Clear,0,2013-01-03 01:35:00
7:55 PM,19.4,14.0,80,30.26,10.0,Calm,Calm,-,N/A,,Clear,0,2013-01-03 01:55:00
8:15 PM,19.4,14.0,80,30.26,10.0,Calm,Calm,-,N/A,,Clear,0,2013-01-03 02:15:00
8:35 PM,19.4,14.0,80,30.26,10.0,Calm,Calm,-,N/A,,Clear,0,2013-01-03 02:35:00
8:55 PM,19.4,14.0,80,30.26,10.0,Calm,Calm,-,N/A,,Clear,0,2013-01-03 02:55:00
9:15 PM,19.4,14.0,80,30.26,10.0,Calm,Calm,-,N/A,,Clear,0,2013-01-03 03:15:00
9:35 PM,19.4,12.2,74,30.26,10.0,Calm,Calm,-,N/A,,Clear,0,2013-01-03 03:35:00
9:55 PM,19.4,12.2,74,30.27,10.0,Calm,Calm,-,N/A,,Clear,0,2013-01-03 03:55:00
10:15 PM,17.6,12.2,79,30.28,10.0,Calm,Calm,-,N/A,,Clear,0,2013-01-03 04:15:00
10:35 PM,17.6,12.2,79,30.27,10.0,Calm,Calm,-,N/A,,Clear,0,2013-01-03 04:35:00
10:55 PM,14.0,10.4,86,30.27,10.0,Calm,Calm,-,N/A,,Clear,0,2013-01-03 04:55:00
11:15 PM,14.0,12.2,93,30.26,10.0,Calm,Calm,-,N/A,,Clear,0,2013-01-03 05:15:00
11:35 PM,14.0,10.4,86,30.26,10.0,Calm,Calm,-,N/A,,Clear,0,2013-01-03 05:35:00
11:55 PM,14.0,12.2,93,30.26,10.0,Calm,Calm,-,N/A,,Clear,0,2013-01-03 05:55:00